GW6083 Weather Reports


time (UTC)temp
F
wind
direction
speed
knots
gust
knots
rain 1hr
in
rain 24hr
in
rain mn
in
humidity
%
barometer
mb
20260506033940 66 233 1.7 2.6 0.00 0.00 0.00 64 1005.3
20260506033437 66 198 3.5 5.2 0.00 0.00 0.00 64 1005.4
20260506032934 66 207 6.1 7.8 0.00 0.00 0.00 64 1005.1
20260506032431 66 210 1.7 2.6 0.00 0.00 0.00 63 1005.1
20260506031927 66 188 1.7 2.6 0.00 0.00 0.00 63 1005.3
20260506031425 66 171 1.7 2.6 0.00 0.00 0.00 63 1005.3
20260506030923 66 182 0.0 0.9 0.00 0.00 0.00 63 1005.4
20260506030420 67 185 0.9 1.7 0.00 0.00 0.00 63 1005.3
20260506025917 67 179 1.7 1.7 0.00 0.00 0.00 62 1005.2
20260506025414 67 244 3.5 5.2 0.00 0.00 0.00 62 1005.4
20260506024910 67 184 3.5 6.1 0.00 0.00 0.00 62 1005.5
20260506024408 67 209 1.7 2.6 0.00 0.00 0.00 62 1005.1
20260506023904 68 223 1.7 1.7 0.00 0.00 0.00 61 1005.2
20260506023401 68 227 6.1 7.8 0.00 0.00 0.00 61 1005.4
20260506022857 68 234 2.6 4.3 0.00 0.00 0.00 61 1005.3
20260506022355 68 206 2.6 4.3 0.00 0.00 0.00 60 1005.3
20260506021853 69 216 1.7 1.7 0.00 0.00 0.00 60 1005.4
20260506021349 69 225 4.3 6.1 0.00 0.00 0.00 59 1005.4
20260506020846 69 220 2.6 2.6 0.00 0.00 0.00 59 1005.4
20260506020344 69 226 1.7 6.1 0.00 0.00 0.00 58 1005.4
20260506015841 69 218 4.3 6.1 0.00 0.00 0.00 58 1005.4
20260506015339 70 207 0.9 0.9 0.00 0.00 0.00 58 1005.4
20260506014835 70 194 0.9 0.9 0.00 0.00 0.00 57 1005.3
20260506014332 70 209 4.3 6.1 0.00 0.00 0.00 57 1005.5
20260506013829 70 211 2.6 4.3 0.00 0.00 0.00 56 1005.2
20260506013326 70 225 1.7 2.6 0.00 0.00 0.00 56 1005.1
20260506012822 71 221 0.9 1.7 0.00 0.00 0.00 56 1005.0
20260506012320 71 205 2.6 2.6 0.00 0.00 0.00 55 1005.2
20260506011817 71 294 0.9 1.7 0.00 0.00 0.00 55 1005.1
20260506011313 71 211 0.0 0.0 0.00 0.00 0.00 54 1004.9
20260506010811 71 250 1.7 4.3 0.00 0.00 0.00 54 1004.5
20260506010309 72 195 2.6 2.6 0.00 0.00 0.00 53 1004.6
20260506005806 72 196 7.8 9.6 0.00 0.00 0.00 52 1004.2
20260506005305 71 23 2.6 4.3 0.00 0.00 0.00 54 1004.1
20260506004758 71 229 2.6 2.6 0.00 0.00 0.00 54 1004.0
20260506004256 71 146 1.7 2.6 0.00 0.00 0.00 55 1004.0
20260506003752 72 195 0.9 0.9 0.00 0.00 0.00 52 1003.6
20260506003249 72 236 4.3 5.2 0.00 0.00 0.00 51 1003.3
20260506002745 72 201 1.7 2.6 0.00 0.00 0.00 52 1003.6
20260506002241 72 168 4.3 7.0 0.00 0.00 0.00 53 1003.5
20260506001737 72 184 0.9 0.9 0.00 0.00 0.00 54 1003.4
20260506001235 72 202 3.5 5.2 0.00 0.00 0.00 53 1003.3
20260506000731 72 193 0.0 0.0 0.00 0.00 0.00 54 1003.1
20260506000229 73 235 1.7 1.7 0.00 0.00 0.00 53 1003.1
20260505235726 73 128 0.9 1.7 0.00 0.00 0.00 54 1003.0
20260505235224 73 209 1.7 1.7 0.00 0.00 0.00 53 1002.7
20260505234720 74 193 0.9 0.9 0.00 0.00 0.00 53 1002.6
20260505234218 74 205 0.0 0.9 0.00 0.00 0.00 52 1002.6
20260505233714 74 185 1.7 1.7 0.00 0.00 0.00 52 1002.5
20260505233212 74 209 0.0 0.9 0.00 0.00 0.00 52 1002.2
20260505232709 74 162 3.5 5.2 0.00 0.00 0.00 52 1002.4
20260505232206 75 212 1.7 2.6 0.00 0.00 0.00 51 1002.4
20260505231703 75 211 1.7 2.6 0.00 0.00 0.00 51 1002.6
20260505231202 76 180 0.9 1.7 0.00 0.00 0.00 48 1002.3
20260505230700 76 211 6.1 13.0 0.00 0.00 0.00 46 1001.8
20260505230156 77 193 1.7 2.6 0.00 0.00 0.00 47 1002.2
20260505225652 77 212 3.5 6.1 0.00 0.00 0.00 47 1002.2
20260505225149 77 247 6.1 7.8 0.00 0.00 0.00 44 1002.1
20260505224645 78 192 1.7 2.6 0.00 0.00 0.00 46 1001.9
20260505224143 77 196 2.6 2.6 0.00 0.00 0.00 47 1001.9
20260505223640 78 180 3.5 5.2 0.00 0.00 0.00 47 1001.6
20260505223136 78 128 1.7 1.7 0.00 0.00 0.00 47 1001.8
20260505222632 78 206 0.9 0.9 0.00 0.00 0.00 46 1001.7
20260505222128 78 105 2.6 5.2 0.00 0.00 0.00 45 1001.5
20260505221626 79 235 5.2 6.1 0.00 0.00 0.00 45 1001.3
20260505221122 79 127 3.5 5.2 0.00 0.00 0.00 43 1001.3
20260505220620 80 229 4.3 6.1 0.00 0.00 0.00 43 1001.3
20260505220117 80 213 2.6 2.6 0.00 0.00 0.00 42 1001.1
20260505215615 81 205 2.6 4.3 0.00 0.00 0.00 40 1000.9
20260505215113 81 289 2.6 2.6 0.00 0.00 0.00 40 1000.9
20260505214611 80 182 2.6 2.6 0.00 0.00 0.00 40 1000.7
20260505214108 81 236 0.9 1.7 0.00 0.00 0.00 41 1001.0
20260505213605 81 154 0.9 1.7 0.00 0.00 0.00 42 1000.7
20260505213102 82 235 2.6 7.8 0.00 0.00 0.00 40 1000.7
20260505212558 82 209 0.9 0.9 0.00 0.00 0.00 41 1000.8
20260505212056 82 217 0.0 0.9 0.00 0.00 0.00 40 1000.6
20260505211552 83 235 3.5 4.3 0.00 0.00 0.00 39 1000.7
20260505211049 83 182 1.7 2.6 0.00 0.00 0.00 37 1000.6
20260505210545 83 232 2.6 4.3 0.00 0.00 0.00 37 1000.7
20260505210043 82 207 0.9 2.6 0.00 0.00 0.00 38 1000.8
20260505205541 83 244 2.6 2.6 0.00 0.00 0.00 38 1000.4
20260505205038 83 246 6.1 8.7 0.00 0.00 0.00 37 1000.4
20260505204535 83 228 1.7 4.3 0.00 0.00 0.00 38 1000.2
20260505204032 82 222 1.7 1.7 0.00 0.00 0.00 38 1000.7
20260505203529 83 189 2.6 6.1 0.00 0.00 0.00 38 1000.6
20260505203026 83 241 6.1 7.0 0.00 0.00 0.00 37 1000.6
20260505202522 83 217 0.9 0.9 0.00 0.00 0.00 38 1000.9
20260505202018 83 232 4.3 8.7 0.00 0.00 0.00 37 1000.8
20260505201515 83 168 3.5 6.1 0.00 0.00 0.00 38 1000.7
20260505201013 83 285 6.1 8.7 0.00 0.00 0.00 38 1000.9
20260505200510 84 217 3.5 4.3 0.00 0.00 0.00 38 1000.8
20260505200007 85 147 1.7 2.6 0.00 0.00 0.00 39 1001.1
20260505195503 85 122 0.9 1.7 0.00 0.00 0.00 39 1000.7
20260505195000 84 255 7.0 8.7 0.00 0.00 0.00 39 1000.9
20260505194458 83 132 3.5 5.2 0.00 0.00 0.00 39 1000.8
20260505193958 84 225 2.6 4.3 0.00 0.00 0.00 40 1000.8
20260505193456 84 196 0.9 1.7 0.00 0.00 0.00 41 1001.0
20260505192953 83 115 4.3 6.1 0.00 0.00 0.00 40 1000.9
20260505192451 82 212 1.7 1.7 0.00 0.00 0.00 41 1001.0
20260505191948 84 178 1.7 1.7 0.00 0.00 0.00 40 1001.1
20260505191447 84 118 2.6 4.3 0.00 0.00 0.00 40 1001.3
20260505190943 83 239 2.6 4.3 0.00 0.00 0.00 41 1001.3
20260505190438 84 298 2.6 2.6 0.00 0.00 0.00 40 1001.5
20260505185934 84 227 1.7 1.7 0.00 0.00 0.00 39 1001.6
20260505185432 85 158 2.6 4.3 0.00 0.00 0.00 38 1001.6
20260505184928 83 240 2.6 4.3 0.00 0.00 0.00 37 1001.8
20260505184425 84 212 4.3 7.0 0.00 0.00 0.00 36 1001.8
20260505183922 84 225 7.0 11.3 0.00 0.00 0.00 37 1001.6
20260505183419 85 161 2.6 2.6 0.00 0.00 0.00 38 1001.7
20260505182915 84 225 6.1 8.7 0.00 0.00 0.00 38 1002.0
20260505182412 84 165 3.5 4.3 0.00 0.00 0.00 39 1001.9
20260505181908 84 263 3.5 5.2 0.00 0.00 0.00 39 1002.0
20260505181406 84 195 5.2 7.8 0.00 0.00 0.00 38 1002.2
20260505180903 83 189 3.5 5.2 0.00 0.00 0.00 40 1002.6
20260505180359 83 249 6.1 8.7 0.00 0.00 0.00 40 1002.6
20260505175856 84 77 0.9 1.7 0.00 0.00 0.00 41 1002.5
20260505175352 84 261 5.2 7.8 0.00 0.00 0.00 39 1002.7
20260505174848 82 229 0.9 1.7 0.00 0.00 0.00 41 1002.3
20260505174346 83 224 2.6 4.3 0.00 0.00 0.00 41 1002.3
20260505173842 82 192 3.5 6.1 0.00 0.00 0.00 41 1002.6
20260505173339 83 202 3.5 5.2 0.00 0.00 0.00 40 1002.8
20260505172836 84 302 3.5 4.3 0.00 0.00 0.00 40 1002.8
20260505172334 82 191 1.7 1.7 0.00 0.00 0.00 41 1002.9
20260505171833 82 205 1.7 1.7 0.00 0.00 0.00 41 1003.0
20260505171330 81 218 2.6 2.6 0.00 0.00 0.00 43 1003.3
20260505170827 82 231 4.3 5.2 0.00 0.00 0.00 42 1003.3
20260505170323 81 245 4.3 6.1 0.00 0.00 0.00 43 1003.6
20260505165819 82 168 3.5 5.2 0.00 0.00 0.00 43 1003.3
20260505165315 81 192 2.6 2.6 0.00 0.00 0.00 43 1003.4
20260505164810 81 220 3.5 6.1 0.00 0.00 0.00 42 1003.6
20260505164308 80 176 0.9 0.9 0.00 0.00 0.00 46 1003.6
20260505163806 80 203 7.8 9.6 0.00 0.00 0.00 45 1003.8
20260505163304 79 217 3.5 4.3 0.00 0.00 0.00 44 1003.9
20260505162802 79 247 5.2 6.1 0.00 0.00 0.00 47 1003.8
20260505162258 79 206 1.7 2.6 0.00 0.00 0.00 48 1004.0
20260505161755 78 204 2.6 2.6 0.00 0.00 0.00 47 1004.2
20260505161253 78 351 2.6 4.3 0.00 0.00 0.00 47 1004.3
20260505160750 78 232 2.6 2.6 0.00 0.00 0.00 48 1004.4
20260505160248 78 207 1.7 1.7 0.00 0.00 0.00 50 1004.5
20260505153227 75 208 1.7 1.7 0.00 0.00 0.00 52 1004.7
20260505152724 75 309 2.6 2.6 0.00 0.00 0.00 51 1004.9
20260505152220 75 241 1.7 2.6 0.00 0.00 0.00 51 1004.9
20260505151714 74 234 3.5 5.2 0.00 0.00 0.00 53 1005.1
20260505151212 73 223 4.3 7.0 0.00 0.00 0.00 53 1005.4
20260505150708 72 199 0.9 1.7 0.00 0.00 0.00 55 1005.2
20260505150206 73 221 2.6 4.3 0.00 0.00 0.00 55 1005.1
20260505140639 67 207 0.9 1.7 0.00 0.00 0.00 62 1005.4
20260505140136 68 219 2.6 6.1 0.00 0.00 0.00 62 1005.5
20260505124549 62 205 0.0 0.9 0.00 0.00 0.00 69 1005.9
20260505124045 62 188 4.3 7.0 0.00 0.00 0.00 69 1005.4
20260505123542 62 279 2.6 5.2 0.00 0.00 0.00 68 1005.7
20260505123038 63 271 4.3 7.0 0.00 0.00 0.00 67 1005.6
20260505122535 63 208 1.7 1.7 0.00 0.00 0.00 67 1005.6
20260505122032 62 215 1.7 2.6 0.00 0.00 0.00 67 1005.8
20260505121529 63 224 0.9 2.6 0.00 0.00 0.00 67 1005.5
20260505121025 63 182 1.7 1.7 0.00 0.00 0.00 67 1005.7
20260505120522 62 189 1.7 1.7 0.00 0.00 0.00 68 1005.4
20260505120017 62 192 1.7 2.6 0.00 0.00 0.00 69 1005.3
20260505115512 61 217 3.5 5.2 0.00 0.00 0.00 69 1005.2
20260505115010 60 227 0.9 1.7 0.00 0.00 0.00 71 1005.3
20260505114507 60 216 1.7 1.7 0.00 0.00 0.00 71 1005.3
20260505114003 59 215 1.7 1.7 0.00 0.00 0.00 72 1005.4
20260505113500 59 197 2.6 2.6 0.00 0.00 0.00 72 1005.3
20260505112955 59 207 0.9 1.7 0.00 0.00 0.00 72 1005.6
20260505112453 59 218 5.2 8.7 0.00 0.00 0.00 72 1005.4
20260505111949 58 198 1.7 1.7 0.00 0.00 0.00 73 1005.4
20260505111443 58 216 2.6 2.6 0.00 0.00 0.00 74 1005.5
20260505110940 57 221 0.9 0.9 0.00 0.00 0.00 74 1005.3
20260505110437 57 227 1.7 1.7 0.00 0.00 0.00 75 1005.6
20260505101909 53 193 0.0 0.0 0.00 0.00 0.00 79 1005.6
20260505101409 53 211 0.0 0.0 0.00 0.00 0.00 79 1005.4
20260505100905 53 202 0.0 0.9 0.00 0.00 0.00 80 1005.6
20260505100401 52 224 1.7 1.7 0.00 0.00 0.00 81 1005.3
20260505095857 53 205 0.0 0.0 0.00 0.00 0.00 80 1005.5
20260505095355 53 216 0.0 0.0 0.00 0.00 0.00 79 1005.4
20260505094850 52 214 0.0 0.0 0.00 0.00 0.00 80 1005.3
20260505094348 53 211 0.0 0.0 0.00 0.00 0.00 79 1005.8
20260505093843 52 208 0.9 0.9 0.00 0.00 0.00 79 1005.5
20260505093341 52 197 0.0 0.0 0.00 0.00 0.00 79 1005.4
20260505092838 53 212 0.0 0.0 0.00 0.00 0.00 79 1005.2
20260505092336 52 189 0.9 0.9 0.00 0.00 0.00 79 1005.4
20260505091833 53 199 0.9 0.9 0.00 0.00 0.00 79 1005.6
20260505091331 52 187 1.7 1.7 0.00 0.00 0.00 79 1005.3
20260505090829 52 191 0.9 0.9 0.00 0.00 0.00 79 1005.5
20260505090327 52 201 1.7 1.7 0.00 0.00 0.00 80 1005.4
20260505085824 52 211 0.0 0.0 0.00 0.00 0.00 80 1005.4
20260505085322 52 211 0.0 0.9 0.00 0.00 0.00 80 1005.5
20260505084819 52 207 0.0 0.9 0.00 0.00 0.00 79 1005.6
20260505084318 52 206 0.9 0.9 0.00 0.00 0.00 79 1005.7
20260505083814 52 218 0.9 0.9 0.00 0.00 0.00 78 1005.6
20260505083311 53 208 0.0 0.0 0.00 0.00 0.00 78 1005.5
20260505082808 53 206 0.0 0.0 0.00 0.00 0.00 77 1005.8
20260505082305 53 202 0.0 0.0 0.00 0.00 0.00 77 1005.5
20260505081800 53 209 0.9 0.9 0.00 0.00 0.00 76 1005.4
20260505081258 53 201 0.0 0.0 0.00 0.00 0.00 76 1005.6
20260505080754 54 198 0.0 0.0 0.00 0.00 0.00 75 1005.7
20260505080250 53 215 0.0 0.0 0.00 0.00 0.00 75 1005.8
20260505075746 53 195 0.0 0.0 0.00 0.00 0.00 75 1005.9
20260505075243 53 208 0.9 1.7 0.00 0.00 0.00 76 1005.9
20260505074740 53 197 0.0 0.0 0.00 0.00 0.00 75 1005.8
20260505074238 54 209 0.0 0.0 0.00 0.00 0.00 75 1005.7
20260505073735 54 217 1.7 1.7 0.00 0.00 0.00 75 1005.7
20260505073233 54 208 0.0 0.9 0.00 0.00 0.00 75 1005.9
20260505072729 54 230 0.9 1.7 0.00 0.00 0.00 74 1005.8
20260505072225 54 248 0.0 1.7 0.00 0.00 0.00 75 1005.8
20260505071721 54 194 0.0 0.0 0.00 0.00 0.00 75 1005.8
20260505071218 53 190 0.9 0.9 0.00 0.00 0.00 75 1005.9
20260505070716 53 184 0.9 1.7 0.00 0.00 0.00 75 1005.8
20260505070212 54 205 0.9 0.9 0.00 0.00 0.00 75 1005.8
20260505065708 53 207 0.0 0.0 0.00 0.00 0.00 75 1005.8
20260505065205 54 202 0.0 0.0 0.00 0.00 0.00 74 1005.8
20260505064702 54 197 0.0 0.0 0.00 0.00 0.00 74 1005.9
20260505064200 54 198 0.0 0.0 0.00 0.00 0.00 74 1005.9
20260505063657 54 211 0.0 0.0 0.00 0.00 0.00 73 1005.9
20260505063153 54 191 0.9 0.9 0.00 0.00 0.00 72 1005.9
20260505062649 54 177 0.9 0.9 0.00 0.00 0.00 73 1006.0
20260505062147 54 207 0.0 0.0 0.00 0.00 0.00 72 1006.1
20260505061644 55 204 0.9 0.9 0.00 0.00 0.00 72 1005.8
20260505061142 55 195 0.0 0.0 0.00 0.00 0.00 71 1005.9
20260505060639 55 205 0.0 0.0 0.00 0.00 0.00 71 1005.9
20260505060136 55 205 0.0 0.0 0.00 0.00 0.00 71 1005.9
20260505055631 55 206 0.0 0.0 0.00 0.00 0.00 70 1006.0
20260505055128 55 209 0.9 0.9 0.00 0.00 0.00 71 1006.0
20260505054625 55 210 0.9 0.9 0.00 0.00 0.00 70 1006.1
20260505054123 55 263 1.7 1.7 0.00 0.00 0.00 70 1006.1
20260505053620 55 186 0.9 0.9 0.00 0.00 0.00 69 1006.2
20260505053116 56 182 0.9 0.9 0.00 0.00 0.00 69 1006.2
20260505052614 56 216 0.9 0.9 0.00 0.00 0.00 68 1006.1
20260505052111 56 193 0.9 1.7 0.00 0.00 0.00 68 1006.2
20260505051608 56 209 0.9 0.9 0.00 0.00 0.00 67 1006.2
20260505051106 56 195 1.7 1.7 0.00 0.00 0.00 67 1006.2
20260505050604 56 217 2.6 2.6 0.00 0.00 0.00 67 1006.2
20260505041531 58 204 1.7 2.6 0.00 0.00 0.00 62 1006.1
20260505041029 58 163 0.9 1.7 0.00 0.00 0.00 62 1006.4
20260505040526 58 192 1.7 1.7 0.00 0.00 0.00 62 1006.1
20260505040023 58 231 4.3 5.2 0.00 0.00 0.00 61 1005.9
20260505035519 58 224 1.7 2.6 0.00 0.00 0.00 61 1006.1
20260505035016 58 159 1.7 2.6 0.00 0.00 0.00 61 1006.1
20260505034513 59 228 0.9 1.7 0.00 0.00 0.00 60 1005.8